SCP
0 0 0 0 0 0 0 0 0 0 0 0 0 0 0 0 0 0 0 0 0 0 0 0 0 0 0 0 0 0 0 0 0 0 0 0 0 0 0 0 0 0 0 0
0 0 0 0 0 0 0 0 0 0 0 0 0 0 0 0 0 0 0 0 0 0 0 0 0 0 0 0 0 0 0 0 0 0 0 0 0 0 0 0 0 0 0 0
0 0 0 0 0 0 0 0 0 0 0 0 0 0 0 0 0 0 0 0 0 0 0 0 0 0 0 0 0 0 0 0 0 0 0 0 0 0 0 0 0 0 0 0
0 0 0 0 0 0 0 0 0 0 0 0 0 0 0 0 0 0 0 0 0 0 0 0 0 0 0 0 0 0 0 0 0 0 0 0 0 0 0 0 0 0 0 0
0 0 0 0 0 0 0 0 0 0 0 0 0 0 0 0 0 0 0 0 0 0 0 0 0 0 0 0 0 0 0 0 0 0 0 0 0 0 0 0 0 0 0 0
0 0 0 0 0 0 0 0 0 0 0 0 0 0 0 0 0 0 0 0 0 0 0 0 0 0 0 0 0 0 0 0 0 0 0 0 0 0 0 0 0 0 0 0
0 0 0 0 0 0 0 0 0 0 0 0 0 0 0 0 0 0 0 0 0 0 0 0 0 0 0 0 0 0 0 0 0 0 0 0 0 0 0 0 0 0 0 0
0 0 0 0 0 0 0 0 0 0 0 0 0 0 0 0 0 0 0 0 0 0 0 0 0 0 0 0 0 0 0 0 0 0 0 0 0 0 0 0 0 0 0 0
0 0 0 0 0 0 0 0 0 0 0 0 0 0 0 0 0 0 0 0 0 0 0 0 0 0 0 0 0 0 0 0 0 0 0 0 0 0 0 0 0 0 0 0
0 0 0 0 0 0 0 0 0 0 0 0 0 0 0 0 0 0 0 0 0 0 0 0 0 0 0 0 0 0 0 0 0 0 0 0 0 0 0 0 0 0 0 0
0 0 0 0 0 0 0 0 0 0 0 0 0 0 0 0 0 0 0 0 0 0 0 0 0 0 0 0 0 0 0 0 0 0 0 0 0 0 0 0 0 0 0 0
0 0 0 0 0 0 0 0 0 0 0 0 0 0 0 0 0 0 0 0 0 0 0 0 0 0 0 0 0 0 0 0 0 0 0 0 0 0 0 0 0 0 0 0
0 0 0 0 0 0 0 0 0 0 0 0 0 0 0 0 0 0 0 0 0 0 0 0 0 0 0 0 0 0 0 0 0 0 0 0 0 0 0 0 0 0 0 0
0 0 0 0 0 0 0 0 0 0 0 0 0 0 0 0 0 0 0 0 0 0 0 0 0 0 0 0 0 0 0 0 0 0 0 0 0 0 0 0 0 0 0 0
0 0 0 0 0 0 0 0 0 0 0 0 0 0 0 0 0 0 0 0 0 0 0 0 0 0 0 0 0 0 0 0 0 0 0 0 0 0 0 0 0 0 0 0
0 0 -0 -0 -0 -0 -0 0 0 0 0 0 0 0 0 0 0 0 0 0 0 0 0 0 0 0 0 0 0 0 0 0 0 0 0 0 0 0 0 0 0 0 0 0
0 0 -0 -0 -0 -0 -0 0 0 0 0 0 0 0 0 0 0 0 0 0 0 0 0 0 0 0 0 0 0 0 0 0 0 0 0 0 0 0 0 0 0 0 0 0
0 0 -0 -0 -0 -0 -0 -0 0 0 0 0 0 0 0 0 0 0 0 0 0 0 0 0 0 0 0 0 0 0 0 0 0 0 0 0 0 0 0 0 0 0 0 0
0 0 0 -0 -0 -0 -0 -0 -0 -0 0 0 0 0 0 0 0 0 0 0 0 0 0 0 0 0 0 0 0 0 0 0 0 0 0 0 0 0 0 0 0 0 0 0
0 0 0 0 -0 -0 -0 -0 -0 -0 0 0 0 0 0 0 0 0 0 0 0 0 0 0 0 0 0 0 0 0 0 0 0 0 0 0 0 0 0 0 0 0 0 0
0 0 0 0 0 -0 -0 0 0 0 0 0 0 0 0 0 0 0 0 0 0 0 0 0 0 0 0 0 0 0 0 0 0 0 0 0 0 0 0 0 0 0 0 0
0 0 0 0 0 0 0 0 0 0 0 0 0 0 0 0 0 0 0 0 0 0 0 0 0 0 0 0 0 0 0 0 0 0 0 0 0 0 0 0 0 0 0 0
0 0 0 0 0 0 0 0 0 0 0 0 0 0 0 0 0 0 0 0 0 0 0 0 0 0 0 0 0 0 0 0 0 0 0 0 0 0 0 0 0 0 0 0
0 0 0 0 0 0 0 0 0 0 0 0 0 0 0 0 0 0 0 0 0 0 0 0 0 0 0 0 0 0 0 0 0 0 0 0 0 0 0 0 0 0 0 0
0 0 0 0 0 0 0 0 0 0 0 0 0 0 0 0 0 0 0 0 0 0 0 0 0 0 0 0 0 0 0 0 0 0 0 0 0 0 0 0 0 0 0 0
0 0 0 0 0 0 0 0 0 0 0 0 0 0 0 0 0 0 0 0 0 0 0 0 0 0 0 0 0 0 0 0 0 0 0 0 0 0 0 0 0 0 0 0
Wind_Speed
1 1 2 3 4 5 6 7 8 6 1 1 4 5 4 3 1 0 1 1 1 2 2 3 4 4 4 5 5 5 4 4 3 3 2 1 1 1 1 1 1 2 1 2
2 3 4 4 4 6 6 7 7 5 2 3 4 6 4 3 3 1 1 1 1 2 3 3 4 4 4 4 5 4 4 4 3 3 2 1 1 0 1 1 1 2 1 1
3 2 4 5 5 5 7 5 6 6 5 4 4 6 4 3 3 2 1 1 2 2 3 3 4 4 4 4 4 4 5 4 4 3 2 2 1 1 2 2 1 1 2 1
2 3 4 4 5 4 6 4 6 7 5 4 2 5 3 4 2 1 1 1 2 2 3 3 3 4 4 4 3 4 4 4 4 3 2 2 1 1 1 1 1 2 1 1
2 2 4 5 5 5 6 6 8 7 5 5 4 4 4 4 3 2 1 0 1 2 3 3 4 3 3 3 3 3 3 4 4 4 3 2 1 1 1 1 1 2 2 1
4 1 2 3 6 5 5 6 6 4 3 5 7 5 4 2 3 2 0 1 1 2 3 3 4 4 4 3 3 3 3 4 4 4 4 3 2 1 1 1 1 1 2 2
3 2 1 3 5 3 3 2 2 2 4 5 3 4 2 1 2 2 0 1 2 3 3 4 5 5 5 5 4 3 3 4 5 4 4 3 2 1 1 0 0 1 1 2
4 3 1 2 2 3 3 1 1 3 4 3 2 4 2 1 2 3 2 3 3 3 4 4 4 5 5 5 5 4 4 4 4 4 4 4 3 1 1 1 0 1 1 2
4 4 2 1 1 2 3 2 1 2 3 4 4 2 1 3 3 4 4 4 4 4 4 5 5 5 5 5 5 5 4 4 4 4 4 4 3 2 2 1 1 1 1 2
3 5 4 1 1 1 2 3 2 2 3 4 4 2 1 2 1 2 3 3 4 4 4 5 5 5 5 5 5 5 5 5 5 4 4 5 4 2 2 1 1 1 1 1
3 3 4 1 1 1 1 1 2 3 3 2 3 2 3 2 1 0 1 3 3 4 4 5 5 5 5 5 5 5 5 4 4 4 4 4 4 3 2 2 2 2 2 1
3 2 4 3 2 3 2 0 1 1 3 3 3 4 2 4 4 4 3 4 4 4 4 5 5 5 5 5 5 5 6 5 5 4 4 5 4 3 2 2 2 2 2 2
2 1 4 2 1 2 1 1 2 2 2 3 3 4 2 4 5 5 5 4 4 5 5 5 5 6 6 6 6 6 6 6 5 5 5 5 5 4 4 3 3 2 2 2
2 2 3 4 3 2 3 3 2 1 2 4 5 6 5 5 5 6 5 5 5 5 5 6 6 6 6 6 6 6 7 7 6 6 5 5 5 4 4 4 4 3 3 2
0 3 3 6 6 5 6 6 4 5 5 6 6 7 7 5 5 5 5 5 5 6 7 7 7 6 6 7 6 6 7 7 7 6 6 6 6 5 4 4 4 4 3 3
1 3 3 6 6 5 7 7 5 6 7 8 8 9 6 5 4 5 5 6 6 6 7 7 8 8 7 7 7 7 7 7 7 6 6 6 6 6 5 5 4 4 4 3
2 2 2 4 3 5 6 5 4 3 3 4 7 6 5 5 6 5 5 5 6 7 7 7 7 7 7 7 7 7 7 7 6 6 6 6 6 6 6 6 5 5 4 4
2 1 2 3 3 5 5 1 1 2 3 3 3 4 4 4 4 4 3 4 5 7 8 7 7 7 7 7 7 7 7 7 7 7 6 6 6 7 6 6 6 5 4 4
2 2 2 2 3 6 2 0 1 1 4 2 3 5 5 5 4 2 3 4 5 6 6 6 6 7 7 7 7 8 7 7 7 7 7 7 6 7 7 6 6 5 5 5
1 1 2 3 3 5 2 1 1 1 4 2 1 3 4 4 3 4 5 6 6 6 6 6 6 6 6 7 7 7 7 7 7 8 7 7 7 7 7 7 6 6 5 5
1 2 4 5 5 6 1 0 1 1 5 2 1 2 2 2 3 5 6 6 6 6 6 6 6 6 6 7 7 7 7 7 8 8 8 7 7 7 7 6 6 6 5 5
4 3 4 3 5 7 1 2 3 4 2 2 2 2 2 4 4 5 5 6 6 7 7 6 6 6 6 6 7 7 8 8 8 8 8 7 7 6 6 6 6 6 5 5
5 5 4 5 6 2 4 3 2 0 2 2 3 3 3 4 5 6 5 5 6 6 6 6 6 7 7 6 6 8 9 8 8 8 8 7 7 6 6 6 6 5 5 4
3 2 2 4 5 3 2 1 1 1 2 3 3 3 3 4 5 5 5 6 6 6 6 6 6 7 8 7 8 7 8 8 8 8 8 7 6 6 5 4 5 4 4 4
3 3 3 5 4 3 3 3 2 3 3 3 3 3 3 4 5 5 5 6 6 6 6 6 6 7 8 8 8 8 8 8 8 7 7 7 6 5 5 5 4 5 5 6
4 5 5 5 3 3 4 3 2 2 3 3 3 4 4 4 5 5 5 5 5 6 6 6 7 8 8 8 8 8 7 7 7 7 6 5 5 5 5 4 5 8 9 10
Wind_Direction
206 234 273 267 247 267 276 276 282 288 302 270 246 263 251 197 153 112 62 52 32 31 27 24 18 9 12 11 16 18 16 17 17 13 16 24 11 3 21 38 41 21 41 57
239 247 280 299 294 288 277 276 284 291 305 286 268 269 256 179 151 131 113 68 35 24 20 21 15 15 15 13 14 13 14 9 13 7 356 324 307 317 20 39 34 17 30 63
255 298 311 295 293 291 276 261 280 292 304 262 267 277 234 149 124 103 73 58 50 39 15 7 8 9 10 10 8 360 6 6 7 6 360 5 18 29 26 14 12 1 5 60
267 297 302 289 287 290 274 291 285 278 277 263 232 274 244 180 161 186 223 36 35 30 23 11 3 0 2 3 2 1 9 6 5 4 8 23 25 16 339 329 333 335 359 27
291 343 318 290 290 280 267 294 281 266 252 263 236 240 261 165 211 235 227 87 33 26 23 9 359 353 357 0 0 360 9 9 6 5 357 357 360 343 341 353 344 341 352 359
270 291 336 323 307 282 292 293 277 242 237 248 223 211 265 177 210 221 241 40 33 28 22 5 1 360 358 2 4 6 10 9 7 4 352 349 346 351 18 349 349 342 340 344
285 196 86 340 315 312 325 328 310 265 220 239 189 203 241 77 66 136 133 19 24 22 17 4 4 3 357 360 4 5 6 6 2 357 351 339 330 309 177 232 323 326 321 323
320 298 74 28 355 322 296 260 229 261 268 291 223 218 197 110 70 72 67 46 30 20 8 4 3 358 353 354 360 3 2 354 352 350 346 336 333 332 314 304 286 290 299 302
323 302 4 34 11 331 327 329 307 275 279 269 245 200 134 44 51 41 38 32 19 9 5 1 0 359 354 354 353 353 353 345 344 344 344 338 334 339 332 316 309 290 290 302
318 293 301 2 17 331 321 329 334 264 277 274 274 278 303 347 336 7 14 5 356 355 1 358 356 354 354 352 350 352 350 341 345 343 340 338 330 328 324 309 296 283 281 287
322 291 298 301 219 286 38 354 296 277 262 265 284 286 20 42 29 22 355 354 358 353 353 357 354 354 355 353 353 352 349 345 341 341 340 334 327 323 326 308 293 287 289 292
342 312 287 266 90 54 99 263 222 236 280 265 266 274 47 48 36 33 16 7 1 357 359 357 353 354 356 355 354 352 349 341 336 339 335 326 329 329 328 322 310 305 295 286
357 322 304 299 22 25 349 316 290 256 273 263 254 259 33 33 23 18 9 357 357 2 1 359 356 354 354 353 350 350 344 337 338 342 336 331 334 331 326 319 310 298 285 275
1 254 221 252 293 322 290 294 279 229 234 259 248 267 310 343 344 345 351 349 352 358 1 359 355 351 351 350 347 345 340 339 341 340 337 332 330 323 318 315 309 299 287 275
325 268 262 272 284 284 281 284 259 228 231 244 266 277 295 317 324 334 342 345 350 354 355 353 349 347 347 345 343 340 337 339 338 336 333 328 326 327 321 316 310 300 288 285
244 273 295 279 261 272 280 279 266 253 251 256 274 280 299 323 339 344 346 344 346 343 343 344 344 344 343 341 336 334 334 332 332 328 327 326 328 330 325 314 309 303 291 280
239 245 280 277 293 314 280 258 229 233 241 240 256 274 322 335 340 335 333 340 337 334 336 337 336 335 332 331 329 326 325 326 328 324 323 326 329 325 321 318 310 303 298 286
212 248 256 283 324 256 241 133 155 226 265 261 276 305 326 319 314 319 340 342 337 336 333 331 332 330 328 328 328 325 323 325 325 324 323 325 325 319 315 313 308 300 294 285
208 200 252 265 265 266 247 167 115 213 282 270 271 301 319 324 315 319 2 360 338 330 325 321 323 321 324 328 329 327 325 326 326 324 324 324 321 315 312 308 303 298 292 287
267 187 231 251 258 257 260 58 66 101 279 302 297 302 322 342 318 301 343 340 330 328 326 324 325 325 327 328 328 325 323 325 325 321 318 316 310 304 302 301 300 297 291 287
200 219 225 243 248 261 259 199 110 196 262 319 321 306 321 294 269 296 321 326 325 323 324 328 328 327 324 324 324 321 320 319 317 317 314 311 307 302 297 296 297 296 294 289
188 199 209 218 235 254 153 131 193 236 310 335 334 329 314 296 300 310 318 324 327 326 328 332 330 326 325 325 324 319 316 314 315 315 311 309 307 305 304 299 298 295 291 285
204 204 202 206 224 234 166 186 221 300 306 312 321 319 309 303 304 311 315 318 318 319 324 329 326 322 323 325 324 316 314 315 315 313 309 308 309 307 304 300 298 297 292 286
219 212 238 264 264 256 227 233 277 294 285 295 303 306 309 299 301 306 310 314 316 317 320 324 324 321 320 323 323 314 314 317 313 311 310 310 308 306 304 301 297 294 289 285
229 183 227 250 271 295 255 249 280 298 299 305 309 298 290 294 299 303 306 308 311 314 318 320 317 313 314 319 319 319 320 318 316 313 311 311 309 305 302 299 293 292 278 276
204 191 203 235 235 237 266 265 266 273 283 288 294 298 297 289 290 299 302 304 308 311 316 318 317 315 315 317 316 318 320 319 316 314 315 314 312 309 306 305 308 306 303 305